User: anonymous   Login
Location: Hartman Creek State Park
(44.3257°N, 89.2134°W)
Time: 01:56:04
(UTC-05:00)
Language:

Terra - Orbit

View from above orbital plane
View from above orbital plane
View from above satellite
View from above satellite

Ground track
Ground track

The orbit data is extracted from the following two-line orbital elements,

1 25994U 99068A   17174.79716105 +.00000104 +00000-0 +33122-4 0  9997
2 25994 098.2079 249.7478 0001146 065.5703 294.5605 14.57114059931635
Epoch (UTC): 23 June 2017 19:07:54
Eccentricity: 0.0001146
inclination: 98.2079°
perigee height: 702 km
apogee height: 703 km
right ascension of ascending node: 249.7478°
argument of perigee: 65.5703°
revolutions per day: 14.57114059
mean anomaly at epoch: 294.5605°
orbit number at epoch: 93163

The dashed part of the orbit path shows where the satellite is in the earth's shadow,  

DLR